• In Czech Republic
  • List of Countries
  • For 7 days
  • Water Temperature
  • Satellite Maps
  • Weather Map
  • Weather Widgets
  • user-avatar
    Login

    Hourly Weather Thimphu

    Today, 24 February, Saturday

    Time Temperature Precipitation Wind Pressure Humidity
    00:00 +1°C° 0 mm 1 mps 520 mmHg 83%
    01:00 +1°C° 0 mm 1 mps 520 mmHg 80%
    02:00 -1°C° 0 mm 2 mps 520 mmHg 78%
    03:00 -2°C° 0 mm 2 mps 520 mmHg 76%
    04:00 -2°C° 0 mm 2 mps 521 mmHg 72%
    05:00 -2°C° 0 mm 2 mps 521 mmHg 67%
    06:00 -2°C° 0 mm 2 mps 521 mmHg 56%
    07:00 +2°C° 0 mm 2 mps 523 mmHg 49%
    08:00 +6°C° 0 mm 1 mps 525 mmHg 41%
    09:00 +9°C° 0 mm 1 mps 527 mmHg 34%
    10:00 +9°C° 0 mm 2 mps 527 mmHg 35%
    11:00 +10°C° 0 mm 2 mps 528 mmHg 36%
    12:00 +10°C° 0 mm 3 mps 528 mmHg 38%
    13:00 +9°C° 0 mm 3 mps 527 mmHg 44%
    14:00 +9°C° 0 mm 3 mps 526 mmHg 50%
    15:00 +8°C° 0 mm 3 mps 526 mmHg 56%
    16:00 +6°C° 0.2 mm 2 mps 525 mmHg 66%
    17:00 +5°C° 0.2 mm 2 mps 524 mmHg 76%
    18:00 +4°C° 0 mm 1 mps 522 mmHg 86%
    19:00 +4°C° 0.3 mm 1 mps 523 mmHg 86%
    20:00 +3°C° 0.3 mm 1 mps 523 mmHg 87%
    21:00 +3°C° 0.3 mm 1 mps 523 mmHg 88%
    22:00 +3°C° 0.2 mm 1 mps 523 mmHg 87%
    23:00 +3°C° 0.2 mm 1 mps 523 mmHg 86%

    Tomorrow, 25 February, Sunday

    Time Temperature Precipitation Wind Pressure Humidity
    00:00 +3°C° 0.2 mm 1 mps 523 mmHg 85%
    01:00 +3°C° 0.1 mm 1 mps 523 mmHg 84%
    02:00 +2°C° 0.1 mm 1 mps 523 mmHg 83%
    03:00 +2°C° 0.1 mm 1 mps 522 mmHg 83%
    04:00 +2°C° 0 mm 1 mps 522 mmHg 82%
    05:00 +1°C° 0 mm 1 mps 522 mmHg 81%
    06:00 +1°C° 0 mm 1 mps 521 mmHg 81%
    07:00 +3°C° 0 mm 1 mps 523 mmHg 72%
    08:00 +5°C° 0 mm 1 mps 525 mmHg 64%
    09:00 +7°C° 0 mm 1 mps 526 mmHg 55%
    10:00 +8°C° 0 mm 1 mps 526 mmHg 55%
    11:00 +8°C° 0 mm 2 mps 526 mmHg 56%
    12:00 +8°C° 0 mm 2 mps 526 mmHg 56%
    13:00 +8°C° 0.2 mm 2 mps 526 mmHg 59%
    14:00 +8°C° 0.2 mm 2 mps 525 mmHg 62%
    15:00 +7°C° 0.2 mm 3 mps 524 mmHg 65%
    16:00 +6°C° 0.3 mm 2 mps 523 mmHg 72%
    17:00 +5°C° 0.3 mm 2 mps 522 mmHg 80%
    18:00 +4°C° 0.3 mm 1 mps 522 mmHg 88%
    19:00 +4°C° 0.3 mm 1 mps 522 mmHg 88%
    20:00 +4°C° 0.3 mm 1 mps 522 mmHg 88%
    21:00 +4°C° 0.3 mm 1 mps 522 mmHg 88%
    22:00 +3°C° 0.2 mm 1 mps 522 mmHg 87%
    23:00 +3°C° 0.2 mm 1 mps 522 mmHg 87%

    Day after tomorrow, 26 February, Monday

    Time Temperature Precipitation Wind Pressure Humidity
    00:00 +2°C° 0.2 mm 2 mps 521 mmHg 86%
    01:00 +2°C° 0.1 mm 1 mps 521 mmHg 85%
    02:00 +2°C° 0.1 mm 1 mps 520 mmHg 85%
    03:00 +1°C° 0.1 mm 1 mps 520 mmHg 84%
    04:00 -1°C° 0 mm 2 mps 520 mmHg 81%
    05:00 -2°C° 0 mm 2 mps 520 mmHg 78%
    06:00 -2°C° 0 mm 2 mps 519 mmHg 75%
    07:00 +1°C° 0 mm 2 mps 521 mmHg 67%
    08:00 +4°C° 0 mm 1 mps 523 mmHg 59%
    09:00 +7°C° 0 mm 1 mps 525 mmHg 51%
    10:00 +8°C° 0 mm 1 mps 525 mmHg 50%
    11:00 +8°C° 0 mm 2 mps 525 mmHg 50%
    12:00 +9°C° 0 mm 2 mps 526 mmHg 49%
    13:00 +8°C° 0.1 mm 2 mps 525 mmHg 52%
    14:00 +8°C° 0.1 mm 2 mps 524 mmHg 55%
    15:00 +8°C° 0.1 mm 2 mps 523 mmHg 58%
    16:00 +6°C° 0.1 mm 2 mps 523 mmHg 66%
    17:00 +6°C° 0.1 mm 1 mps 522 mmHg 73%
    18:00 +4°C° 0.1 mm 1 mps 521 mmHg 81%
    19:00 +3°C° 0 mm 1 mps 522 mmHg 78%
    20:00 +2°C° 0 mm 2 mps 522 mmHg 76%
    21:00 +1°C° 0 mm 2 mps 522 mmHg 73%
    22:00 +1°C° 0 mm 2 mps 522 mmHg 69%
    23:00 +1°C° 0 mm 2 mps 522 mmHg 65%

    27 February, Tuesday

    Time Temperature Precipitation Wind Pressure Humidity
    00:00 -1°C° 0 mm 2 mps 522 mmHg 61%
    01:00 -1°C° 0 mm 2 mps 522 mmHg 58%
    02:00 -1°C° 0 mm 3 mps 521 mmHg 55%
    03:00 -1°C° 0 mm 3 mps 521 mmHg 53%
    04:00 -1°C° 0 mm 3 mps 521 mmHg 50%
    05:00 -1°C° 0 mm 3 mps 521 mmHg 48%
    06:00 -2°C° 0 mm 3 mps 521 mmHg 46%
    07:00 +3°C° 0 mm 2 mps 524 mmHg 42%
    08:00 +6°C° 0 mm 2 mps 526 mmHg 38%
    09:00 +10°C° 0 mm 1 mps 528 mmHg 34%
    10:00 +12°C° 0 mm 1 mps 529 mmHg 34%
    11:00 +13°C° 0 mm 2 mps 529 mmHg 33%
    12:00 +14°C° 0 mm 2 mps 529 mmHg 32%
    13:00 +14°C° 0 mm 2 mps 528 mmHg 37%
    14:00 +13°C° 0 mm 2 mps 527 mmHg 41%
    15:00 +13°C° 0 mm 2 mps 527 mmHg 45%
    16:00 +10°C° 0 mm 2 mps 525 mmHg 57%
    17:00 +8°C° 0 mm 1 mps 524 mmHg 68%
    18:00 +6°C° 0 mm 1 mps 522 mmHg 80%
    19:00 +5°C° 0 mm 1 mps 523 mmHg 78%
    20:00 +5°C° 0 mm 1 mps 523 mmHg 76%
    21:00 +4°C° 0 mm 1 mps 523 mmHg 74%
    22:00 +3°C° 0 mm 2 mps 523 mmHg 72%
    23:00 +3°C° 0 mm 2 mps 523 mmHg 69%

    28 February, Wednesday

    Time Temperature Precipitation Wind Pressure Humidity
    00:00 +2°C° 0 mm 2 mps 522 mmHg 67%
    01:00 +2°C° 0 mm 2 mps 522 mmHg 64%
    02:00 +2°C° 0 mm 2 mps 521 mmHg 62%
    03:00 +1°C° 0 mm 2 mps 521 mmHg 60%
    04:00 +1°C° 0 mm 2 mps 521 mmHg 58%
    05:00 +1°C° 0 mm 2 mps 521 mmHg 55%
    06:00 +1°C° 0 mm 2 mps 521 mmHg 53%
    07:00 +4°C° 0 mm 1 mps 523 mmHg 49%
    08:00 +7°C° 0 mm 1 mps 525 mmHg 46%
    09:00 +10°C° 0 mm 1 mps 527 mmHg 42%
    10:00 +11°C° 0 mm 1 mps 527 mmHg 43%
    11:00 +10°C° 0 mm 2 mps 527 mmHg 44%
    12:00 +12°C° 0 mm 2 mps 527 mmHg 45%
    13:00 +12°C° 0.1 mm 2 mps 526 mmHg 50%
    14:00 +10°C° 0.1 mm 2 mps 525 mmHg 55%
    15:00 +9°C° 0.1 mm 2 mps 524 mmHg 60%
    16:00 +8°C° 0.1 mm 2 mps 523 mmHg 69%
    17:00 +6°C° 0.1 mm 2 mps 522 mmHg 79%
    18:00 +6°C° 0.1 mm 1 mps 521 mmHg 88%
    19:00 +5°C° 0.1 mm 1 mps 521 mmHg 89%
    20:00 +5°C° 0.1 mm 1 mps 522 mmHg 89%
    21:00 +5°C° 0.1 mm 1 mps 522 mmHg 90%
    22:00 +5°C° 0 mm 1 mps 522 mmHg 89%
    23:00 +4°C° 0 mm 1 mps 522 mmHg 87%

    1 March, Thursday

    Time Temperature Precipitation Wind Pressure Humidity
    00:00 +4°C° 0 mm 1 mps 522 mmHg 86%
    01:00 +4°C° 0 mm 1 mps 521 mmHg 85%
    02:00 +3°C° 0 mm 1 mps 521 mmHg 83%
    03:00 +3°C° 0 mm 1 mps 520 mmHg 82%
    04:00 +3°C° 0 mm 1 mps 520 mmHg 81%
    05:00 +3°C° 0 mm 1 mps 520 mmHg 79%
    06:00 +2°C° 0 mm 1 mps 520 mmHg 78%
    07:00 +4°C° 0 mm 1 mps 522 mmHg 71%
    08:00 +7°C° 0 mm 1 mps 523 mmHg 64%
    09:00 +9°C° 0 mm 1 mps 525 mmHg 57%
    10:00 +9°C° 0 mm 1 mps 525 mmHg 56%
    11:00 +9°C° 0 mm 2 mps 525 mmHg 56%
    12:00 +10°C° 0 mm 2 mps 524 mmHg 56%
    13:00 +9°C° 0.1 mm 2 mps 524 mmHg 59%
    14:00 +9°C° 0.1 mm 3 mps 523 mmHg 62%
    15:00 +9°C° 0.1 mm 3 mps 522 mmHg 65%
    16:00 +7°C° 0.1 mm 2 mps 521 mmHg 72%
    17:00 +6°C° 0.1 mm 2 mps 521 mmHg 79%
    18:00 +6°C° 0.1 mm 1 mps 520 mmHg 86%
    19:00 +5°C° 0.1 mm 1 mps 520 mmHg 87%
    20:00 +5°C° 0.1 mm 1 mps 520 mmHg 88%
    21:00 +5°C° 0.1 mm 1 mps 521 mmHg 89%
    22:00 +5°C° 0.1 mm 1 mps 521 mmHg 88%
    23:00 +4°C° 0.1 mm 1 mps 520 mmHg 88%
    Show more